CZ-3C DEB, 40819

Orbit data source: Space-Track

CZ-3C DEB, 40819 is space debris in HEO originally from a launch on Sun, 31 Oct 2010 UTC launched from the Xichang Space Center, China (XSC). Debris objects in space refer to the collection of defunct objects orbiting the Earth. Examples of debris include non-operational satellites, rocket bodies, and fragments generated from explosions, collisions, or faulty payload assembly.

Loading next visibility...
CZ-3C DEB details
Identifier
40819, 2010-057AL
Orbit
HEO
Last TLE update17 hours ago
Origin
Flag of CNCASC (CN / PRC)
ManufacturerCALT
MissionSpacecraft
Bus & MotorUnknown
MassUnknown
Launch date (UTC)
2010-10-31 (14 years ago)
Launch vehicleUnknown
Launch site
Xichang Space Center, China (XSC)
Object type
Payload
Rocket body
Debris
Shape & HBRUnknown
Radar Cross SectionMedium (>0.1 m² and <1 m²)

Expand to show TLE details & history

TLE from 17 hours ago
0 CZ-3C DEB
1 40819U 10057AL  24361.00907188  .00000221  00000-0  23429-2 0  9991
2 40819  20.1367 183.1614 7103554   1.8285 359.8214  2.31770521 84176
Epoch: 2024-12-26T00:13Z
Definitive object data (Epoch: 2024-12-26T00:13:03.81Z)
Latitude0.00066°
Longitude84.90132°
Altitude626.757 km
Speed9.863 km/s
True Right ascension12h 12m 38s
True Declination0° 00' 02"
Sunlit
Object was in daylight at TLE epoch
Visualization TLE readout
Latitude-4.27369°
Longitude-83.55884°
Altitude33,317.136 km
Speed1.886 km/s
Apparent Right ascension01h 18m 53s
Apparent Declination-9° 18' 06"
Sunlit
Object is in daylight
Visualization observer readout
Local Sidereal Time16:18:54
Azimuth65.113° ENE
Elevation-39.707°
Doppler factor1
Orbital elements
Apogee altitude34,881.672 km
Perigee altitude609.113 km
Semi-major axis24,123.529 km
Eccentricity0.7103554
Inclination20.1367°
RAAN183.1614°
Arg. of periapsis1.8285°
True anomaly358.50175°
Mean anomaly359.8214°
Eccentric anomaly359.38341°
Mean motion0.57927 °/min
BSTAR0.0023429
Orbital period621.47 mins
Loading maneuver chart data...
Loading historical data...
Loading historical data...
Loading historical data...
Loading historical data...
Loading historical data...
Loading historical data...
Loading historical data...

CZ-3C DEB Visibility forecast

Observer location: undefined°, undefined

Span
Click to sort rows by Start time (UTC) header in descending order
Start Az.
Max El. time (UTC)
Max El. Az.
Max El.
End time (UTC)
End Az.
535 mins2024-12-26 21:18:39.527Z256.408° W2024-12-26 22:12:39.527Z191.965° SSW39.168°2024-12-27 06:13:39.527Z207.943° SW
|